Time,TemperatureF,DewpointF,PressureIn,WindDirection,WindDirectionDegrees,WindSpeedMPH,WindSpeedGustMPH,Humidity,HourlyPrecipIn,Conditions,Clouds,dailyrainin,SoftwareType,DateUTC
2013-01-21 00:00:00,34.3,23.9,30.15,NW,315,2.0,6.0,65,-99.99,,,0.62,meteohub,2013-01-21 05:00:00,
2013-01-21 00:02:00,34.3,23.5,30.15,WNW,292,2.0,6.0,64,-99.99,,,0.62,meteohub,2013-01-21 05:02:00,
2013-01-21 00:03:00,34.3,23.9,30.15,WNW,292,2.0,6.0,65,-99.99,,,0.62,meteohub,2013-01-21 05:03:00,
2013-01-21 00:08:00,34.3,24.3,30.15,NW,315,4.0,6.0,66,-99.99,,,0.62,meteohub,2013-01-21 05:08:00,
2013-01-21 00:13:00,34.7,24.3,30.14,WNW,292,0.0,6.0,65,-99.99,,,0.62,meteohub,2013-01-21 05:13:00,
2013-01-21 00:18:00,34.9,23.9,30.14,WNW,292,3.0,6.0,64,-99.99,,,0.62,meteohub,2013-01-21 05:18:00,
2013-01-21 00:23:00,34.7,23.0,30.14,NNE,22,2.0,6.0,62,-99.99,,,0.62,meteohub,2013-01-21 05:23:00,
2013-01-21 00:28:00,34.7,23.0,30.14,North,0,3.0,6.0,62,-99.99,,,0.62,meteohub,2013-01-21 05:28:00,
2013-01-21 00:33:00,34.3,22.6,30.15,NW,315,3.0,5.0,62,-99.99,,,0.62,meteohub,2013-01-21 05:33:00,
2013-01-21 00:39:00,34.3,23.0,30.15,WNW,292,6.0,6.0,63,-99.99,,,0.62,meteohub,2013-01-21 05:39:00,
2013-01-21 00:44:00,34.5,23.2,30.15,NW,315,3.0,10.0,63,-99.99,,,0.62,meteohub,2013-01-21 05:44:00,
2013-01-21 00:49:00,34.2,23.4,30.15,WNW,292,3.0,10.0,64,-99.99,,,0.62,meteohub,2013-01-21 05:49:00,
2013-01-21 00:54:00,34.0,23.2,30.15,NNE,22,3.0,10.0,64,-99.99,,,0.62,meteohub,2013-01-21 05:54:00,
2013-01-21 00:59:00,33.8,23.4,30.15,NNW,338,4.0,7.0,65,-99.99,,,0.62,meteohub,2013-01-21 05:59:00,
2013-01-21 01:04:00,33.8,23.7,30.15,NNW,338,4.0,7.0,66,-99.99,,,0.62,meteohub,2013-01-21 06:04:00,
2013-01-21 01:09:00,33.4,24.1,30.16,WNW,292,4.0,7.0,68,-99.99,,,0.62,meteohub,2013-01-21 06:09:00,
2013-01-21 01:14:00,33.1,24.1,30.16,NNE,22,4.0,5.0,69,-99.99,,,0.62,meteohub,2013-01-21 06:14:00,
2013-01-21 01:19:00,33.1,24.4,30.16,NW,315,4.0,5.0,70,-99.99,,,0.62,meteohub,2013-01-21 06:19:00,
2013-01-21 01:24:00,33.1,25.0,30.16,NNW,338,3.0,6.0,72,-99.99,,,0.62,meteohub,2013-01-21 06:24:00,
2013-01-21 01:29:00,33.3,25.0,30.16,NW,315,4.0,8.0,71,-99.99,,,0.62,meteohub,2013-01-21 06:29:00,
2013-01-21 01:34:00,33.6,25.0,30.16,NW,315,6.0,8.0,70,-99.99,,,0.62,meteohub,2013-01-21 06:34:00,
2013-01-21 01:39:00,33.6,25.0,30.16,WNW,292,2.0,8.0,70,-99.99,,,0.62,meteohub,2013-01-21 06:39:00,
2013-01-21 01:44:00,33.3,24.6,30.16,WNW,292,3.0,8.0,70,-99.99,,,0.62,meteohub,2013-01-21 06:44:00,
2013-01-21 01:49:00,33.1,24.4,30.16,NW,315,3.0,8.0,70,-99.99,,,0.62,meteohub,2013-01-21 06:49:00,
2013-01-21 01:54:00,33.1,24.1,30.16,NW,315,4.0,8.0,69,-99.99,,,0.62,meteohub,2013-01-21 06:54:00,
2013-01-21 01:59:00,32.9,23.9,30.13,NW,315,4.0,6.0,69,-99.99,,,0.62,meteohub,2013-01-21 06:59:00,
2013-01-21 02:04:00,32.9,23.5,30.13,WNW,292,3.0,6.0,68,-99.99,,,0.62,meteohub,2013-01-21 07:04:00,
2013-01-21 02:09:00,32.5,22.8,30.13,NW,315,0.0,6.0,67,-99.99,,,0.62,meteohub,2013-01-21 07:09:00,
2013-01-21 02:14:00,32.4,22.6,30.17,NNW,338,2.0,6.0,67,-99.99,,,0.62,meteohub,2013-01-21 07:14:00,
2013-01-21 02:19:00,32.0,22.3,30.17,NNW,338,3.0,5.0,67,-99.99,,,0.62,meteohub,2013-01-21 07:19:00,
2013-01-21 02:24:00,31.3,21.6,30.17,NW,315,2.0,3.0,67,-99.99,,,0.62,meteohub,2013-01-21 07:24:00,
2013-01-21 02:29:00,30.6,21.2,30.18,WNW,292,5.0,5.0,68,-99.99,,,0.62,meteohub,2013-01-21 07:29:00,
2013-01-21 02:34:00,30.2,21.2,30.19,WNW,292,4.0,4.0,69,-99.99,,,0.62,meteohub,2013-01-21 07:34:00,
2013-01-21 02:39:00,30.0,21.4,30.19,NW,315,2.0,5.0,70,-99.99,,,0.62,meteohub,2013-01-21 07:39:00,
2013-01-21 02:44:00,29.8,21.6,30.19,WNW,292,0.0,5.0,71,-99.99,,,0.62,meteohub,2013-01-21 07:44:00,
2013-01-21 02:49:00,29.7,21.4,30.19,SE,135,0.0,5.0,71,-99.99,,,0.62,meteohub,2013-01-21 07:49:00,
2013-01-21 02:54:00,29.5,21.2,30.19,NNW,338,5.0,5.0,71,-99.99,,,0.62,meteohub,2013-01-21 07:54:00,
2013-01-21 02:59:00,29.3,21.4,30.19,NW,315,2.0,4.0,72,-99.99,,,0.62,meteohub,2013-01-21 07:59:00,
2013-01-21 03:04:00,29.5,21.9,30.19,NW,315,1.0,5.0,73,-99.99,,,0.62,meteohub,2013-01-21 08:04:00,
2013-01-21 03:09:00,28.9,21.4,30.19,WNW,292,0.0,5.0,73,-99.99,,,0.62,meteohub,2013-01-21 08:09:00,
2013-01-21 03:14:00,28.8,21.6,30.20,NW,315,2.0,5.0,74,-99.99,,,0.62,meteohub,2013-01-21 08:14:00,
2013-01-21 03:19:00,28.9,22.1,30.19,NW,315,0.0,5.0,75,-99.99,,,0.62,meteohub,2013-01-21 08:19:00,
2013-01-21 03:24:00,29.3,22.5,30.19,NW,315,3.0,4.0,75,-99.99,,,0.62,meteohub,2013-01-21 08:24:00,
2013-01-21 03:30:00,29.7,22.6,30.19,WNW,292,3.0,5.0,75,-99.99,,,0.62,meteohub,2013-01-21 08:30:00,
2013-01-21 03:34:00,29.7,22.5,30.19,NW,315,2.0,5.0,74,-99.99,,,0.62,meteohub,2013-01-21 08:34:00,
2013-01-21 03:39:00,29.7,22.6,30.19,WSW,248,0.0,5.0,75,-99.99,,,0.62,meteohub,2013-01-21 08:39:00,
2013-01-21 03:44:00,29.7,22.1,30.19,NNE,22,0.0,4.0,73,-99.99,,,0.62,meteohub,2013-01-21 08:44:00,
2013-01-21 03:49:00,29.7,22.1,30.19,East,90,0.0,3.0,73,-99.99,,,0.62,meteohub,2013-01-21 08:49:00,
2013-01-21 03:54:00,29.5,21.9,30.19,NNE,22,0.0,3.0,73,-99.99,,,0.62,meteohub,2013-01-21 08:54:00,
2013-01-21 03:59:00,29.1,21.6,30.19,ESE,112,0.0,2.0,73,-99.99,,,0.62,meteohub,2013-01-21 08:59:00,
2013-01-21 04:04:00,28.8,21.2,30.20,WNW,292,2.0,4.0,73,-99.99,,,0.62,meteohub,2013-01-21 09:04:00,
2013-01-21 04:09:00,28.4,20.8,30.20,North,0,1.0,4.0,73,-99.99,,,0.62,meteohub,2013-01-21 09:09:00,
2013-01-21 04:15:00,28.2,21.0,30.20,WNW,292,3.0,4.0,74,-99.99,,,0.62,meteohub,2013-01-21 09:15:00,
2013-01-21 04:20:00,28.0,21.2,30.20,WNW,292,3.0,4.0,75,-99.99,,,0.62,meteohub,2013-01-21 09:20:00,
2013-01-21 04:25:00,27.9,21.4,30.20,WNW,292,2.0,4.0,76,-99.99,,,0.62,meteohub,2013-01-21 09:25:00,
2013-01-21 04:30:00,27.9,21.4,30.17,NW,315,3.0,4.0,76,-99.99,,,0.62,meteohub,2013-01-21 09:30:00,
2013-01-21 04:35:00,27.9,22.3,30.17,NW,315,4.0,4.0,79,-99.99,,,0.62,meteohub,2013-01-21 09:35:00,
2013-01-21 04:40:00,27.9,22.3,30.17,NW,315,4.0,4.0,79,-99.99,,,0.62,meteohub,2013-01-21 09:40:00,
2013-01-21 04:45:00,28.4,22.8,30.17,NNW,338,5.0,5.0,79,-99.99,,,0.62,meteohub,2013-01-21 09:45:00,
2013-01-21 04:50:00,28.6,22.6,30.17,WNW,292,6.0,7.0,78,-99.99,,,0.62,meteohub,2013-01-21 09:50:00,
2013-01-21 04:55:00,29.1,22.8,30.16,NW,315,5.0,7.0,77,-99.99,,,0.62,meteohub,2013-01-21 09:55:00,
2013-01-21 05:00:00,29.5,22.6,30.16,NW,315,5.0,9.0,75,-99.99,,,0.62,meteohub,2013-01-21 10:00:00,
2013-01-21 05:05:00,29.8,22.3,30.15,NNW,338,6.0,9.0,73,-99.99,,,0.62,meteohub,2013-01-21 10:05:00,
2013-01-21 05:10:00,29.8,21.9,30.15,NNW,338,6.0,9.0,72,-99.99,,,0.62,meteohub,2013-01-21 10:10:00,
2013-01-21 05:15:00,29.8,21.9,30.15,NW,315,6.0,8.0,72,-99.99,,,0.62,meteohub,2013-01-21 10:15:00,
2013-01-21 05:20:00,29.8,21.9,30.15,NW,315,5.0,8.0,72,-99.99,,,0.62,meteohub,2013-01-21 10:20:00,
2013-01-21 05:25:00,29.8,21.9,30.15,NNW,338,7.0,9.0,72,-99.99,,,0.62,meteohub,2013-01-21 10:25:00,
2013-01-21 05:30:00,30.0,21.4,30.15,NW,315,4.0,9.0,70,-99.99,,,0.62,meteohub,2013-01-21 10:30:00,
2013-01-21 05:35:00,30.4,21.0,30.15,North,0,6.0,9.0,68,-99.99,,,0.62,meteohub,2013-01-21 10:35:00,
2013-01-21 05:40:00,30.4,20.8,30.15,NW,315,4.0,8.0,67,-99.99,,,0.62,meteohub,2013-01-21 10:40:00,
2013-01-21 05:45:00,30.2,20.7,30.15,WNW,292,4.0,8.0,67,-99.99,,,0.62,meteohub,2013-01-21 10:45:00,
2013-01-21 05:50:00,30.2,20.7,30.15,NW,315,4.0,8.0,67,-99.99,,,0.62,meteohub,2013-01-21 10:50:00,
2013-01-21 05:55:00,30.2,20.3,30.15,NW,315,4.0,6.0,66,-99.99,,,0.62,meteohub,2013-01-21 10:55:00,
2013-01-21 06:00:00,30.0,20.5,30.15,NW,315,3.0,6.0,67,-99.99,,,0.62,meteohub,2013-01-21 11:00:00,
2013-01-21 06:05:00,29.8,20.3,30.15,NW,315,3.0,6.0,67,-99.99,,,0.62,meteohub,2013-01-21 11:05:00,
2013-01-21 06:10:00,29.7,20.5,30.16,NW,315,6.0,6.0,68,-99.99,,,0.62,meteohub,2013-01-21 11:10:00,
2013-01-21 06:15:00,29.5,20.3,30.16,NNW,338,5.0,6.0,68,-99.99,,,0.62,meteohub,2013-01-21 11:15:00,
2013-01-21 06:20:00,29.1,20.3,30.16,NW,315,3.0,6.0,69,-99.99,,,0.62,meteohub,2013-01-21 11:20:00,
2013-01-21 06:25:00,28.8,20.3,30.16,NW,315,4.0,6.0,70,-99.99,,,0.62,meteohub,2013-01-21 11:25:00,
2013-01-21 06:30:00,28.6,20.1,30.17,WNW,292,3.0,5.0,70,-99.99,,,0.62,meteohub,2013-01-21 11:30:00,
2013-01-21 06:35:00,28.0,19.9,30.17,West,270,3.0,6.0,71,-99.99,,,0.62,meteohub,2013-01-21 11:35:00,
2013-01-21 06:40:00,27.9,19.9,30.17,WNW,292,3.0,6.0,72,-99.99,,,0.62,meteohub,2013-01-21 11:40:00,
2013-01-21 06:45:00,27.7,19.9,30.17,WNW,292,4.0,6.0,72,-99.99,,,0.62,meteohub,2013-01-21 11:45:00,
2013-01-21 06:50:00,27.5,19.9,30.17,WNW,292,3.0,6.0,73,-99.99,,,0.62,meteohub,2013-01-21 11:50:00,
2013-01-21 06:55:00,27.1,19.6,30.18,WNW,292,4.0,4.0,73,-99.99,,,0.62,meteohub,2013-01-21 11:55:00,
2013-01-21 07:00:00,27.5,19.9,30.17,WNW,292,3.0,4.0,73,-99.99,,,0.62,meteohub,2013-01-21 12:00:00,
2013-01-21 07:05:00,27.3,20.1,30.18,NW,315,3.0,4.0,74,-99.99,,,0.62,meteohub,2013-01-21 12:05:00,
2013-01-21 07:10:00,27.3,20.1,30.18,WNW,292,4.0,4.0,74,-99.99,,,0.62,meteohub,2013-01-21 12:10:00,
2013-01-21 07:15:00,27.5,20.3,30.17,SSE,158,4.0,4.0,74,-99.99,,,0.62,meteohub,2013-01-21 12:15:00,
2013-01-21 07:20:00,27.7,20.5,30.17,WNW,292,3.0,4.0,74,-99.99,,,0.62,meteohub,2013-01-21 12:20:00,
2013-01-21 07:25:00,27.9,20.7,30.17,WNW,292,2.0,4.0,74,-99.99,,,0.62,meteohub,2013-01-21 12:25:00,
2013-01-21 07:30:00,27.9,20.3,30.17,West,270,3.0,4.0,73,-99.99,,,0.62,meteohub,2013-01-21 12:30:00,
2013-01-21 07:35:00,27.9,20.3,30.17,NW,315,3.0,4.0,73,-99.99,,,0.62,meteohub,2013-01-21 12:35:00,
2013-01-21 07:40:00,27.9,19.9,30.17,WNW,292,3.0,4.0,72,-99.99,,,0.62,meteohub,2013-01-21 12:40:00,
2013-01-21 07:45:00,27.9,19.9,30.17,NW,315,3.0,4.0,72,-99.99,,,0.62,meteohub,2013-01-21 12:45:00,
2013-01-21 07:50:00,28.0,20.1,30.17,NW,315,3.0,3.0,72,-99.99,,,0.62,meteohub,2013-01-21 12:50:00,
2013-01-21 07:56:00,28.4,20.5,30.17,NNW,338,3.0,3.0,72,-99.99,,,0.62,meteohub,2013-01-21 12:56:00,
2013-01-21 08:01:00,28.6,20.5,30.17,NW,315,3.0,3.0,71,-99.99,,,0.62,meteohub,2013-01-21 13:01:00,
2013-01-21 08:06:00,28.8,20.3,30.16,NW,315,3.0,4.0,70,-99.99,,,0.62,meteohub,2013-01-21 13:06:00,
2013-01-21 08:11:00,28.9,20.1,30.16,WNW,292,4.0,5.0,69,-99.99,,,0.62,meteohub,2013-01-21 13:11:00,
2013-01-21 08:16:00,29.1,20.3,30.16,NW,315,4.0,5.0,69,-99.99,,,0.62,meteohub,2013-01-21 13:16:00,
2013-01-21 08:21:00,29.3,20.1,30.16,NW,315,4.0,5.0,68,-99.99,,,0.62,meteohub,2013-01-21 13:21:00,
2013-01-21 08:26:00,29.3,20.5,30.16,NNW,338,3.0,6.0,69,-99.99,,,0.62,meteohub,2013-01-21 13:26:00,
2013-01-21 08:31:00,29.5,20.7,30.16,WNW,292,3.0,6.0,69,-99.99,,,0.62,meteohub,2013-01-21 13:31:00,
2013-01-21 08:36:00,29.8,20.7,30.15,WNW,292,3.0,6.0,68,-99.99,,,0.62,meteohub,2013-01-21 13:36:00,
2013-01-21 08:41:00,30.2,20.7,30.15,NW,315,0.0,4.0,67,-99.99,,,0.62,meteohub,2013-01-21 13:41:00,
2013-01-21 08:46:00,30.4,20.8,30.15,WNW,292,0.0,4.0,67,-99.99,,,0.62,meteohub,2013-01-21 13:46:00,
2013-01-21 08:51:00,30.6,21.0,30.15,North,0,0.0,4.0,67,-99.99,,,0.62,meteohub,2013-01-21 13:51:00,
2013-01-21 08:56:00,30.7,21.0,30.14,NW,315,3.0,4.0,67,-99.99,,,0.62,meteohub,2013-01-21 13:56:00,
2013-01-21 09:01:00,31.1,20.7,30.14,NNW,338,5.0,5.0,65,-99.99,,,0.62,meteohub,2013-01-21 14:01:00,
2013-01-21 09:06:00,31.8,20.3,30.14,NW,315,4.0,6.0,62,-99.99,,,0.62,meteohub,2013-01-21 14:06:00,
2013-01-21 09:11:00,32.2,20.7,30.13,WNW,292,4.0,7.0,62,-99.99,,,0.62,meteohub,2013-01-21 14:11:00,
2013-01-21 09:16:00,32.4,20.5,30.13,NW,315,5.0,7.0,61,-99.99,,,0.62,meteohub,2013-01-21 14:16:00,
2013-01-21 09:21:00,32.5,19.8,30.13,NW,315,4.0,7.0,59,-99.99,,,0.62,meteohub,2013-01-21 14:21:00,
2013-01-21 09:26:00,33.1,19.6,30.16,WNW,292,3.0,6.0,57,-99.99,,,0.62,meteohub,2013-01-21 14:26:00,
2013-01-21 09:31:00,33.3,19.2,30.16,WNW,292,6.0,6.0,56,-99.99,,,0.62,meteohub,2013-01-21 14:31:00,
2013-01-21 09:36:00,33.8,19.0,30.15,WNW,292,6.0,6.0,54,-99.99,,,0.62,meteohub,2013-01-21 14:36:00,
2013-01-21 09:41:00,34.2,18.5,30.15,WNW,292,4.0,6.0,52,-99.99,,,0.62,meteohub,2013-01-21 14:41:00,
2013-01-21 09:46:00,34.3,19.0,30.15,North,0,4.0,7.0,53,-99.99,,,0.62,meteohub,2013-01-21 14:46:00,
2013-01-21 09:51:00,34.5,19.2,30.15,NW,315,4.0,7.0,53,-99.99,,,0.62,meteohub,2013-01-21 14:51:00,
2013-01-21 09:56:00,34.7,18.5,30.14,WNW,292,4.0,9.0,51,-99.99,,,0.62,meteohub,2013-01-21 14:56:00,
2013-01-21 10:01:00,35.1,17.4,30.14,NNW,338,5.0,9.0,48,-99.99,,,0.62,meteohub,2013-01-21 15:01:00,
2013-01-21 10:06:00,35.4,17.2,30.14,NNW,338,5.0,9.0,47,-99.99,,,0.62,meteohub,2013-01-21 15:06:00,
2013-01-21 10:12:00,35.8,18.1,30.14,WNW,292,4.0,7.0,48,-99.99,,,0.62,meteohub,2013-01-21 15:12:00,
2013-01-21 10:17:00,36.0,16.7,30.14,NW,315,6.0,7.0,45,-99.99,,,0.62,meteohub,2013-01-21 15:17:00,
2013-01-21 10:22:00,36.3,17.1,30.13,NW,315,7.0,7.0,45,-99.99,,,0.62,meteohub,2013-01-21 15:22:00,
2013-01-21 10:27:00,36.5,17.2,30.13,NW,315,5.0,8.0,45,-99.99,,,0.62,meteohub,2013-01-21 15:27:00,
2013-01-21 10:32:00,36.5,16.7,30.13,NW,315,4.0,8.0,44,-99.99,,,0.62,meteohub,2013-01-21 15:32:00,
2013-01-21 10:37:00,36.7,17.4,30.13,NNE,22,4.0,8.0,45,-99.99,,,0.62,meteohub,2013-01-21 15:37:00,
2013-01-21 10:42:00,36.7,16.9,30.13,WNW,292,4.0,7.0,44,-99.99,,,0.62,meteohub,2013-01-21 15:42:00,
2013-01-21 10:47:00,36.9,16.5,30.13,NNW,338,6.0,7.0,43,-99.99,,,0.62,meteohub,2013-01-21 15:47:00,
2013-01-21 10:52:00,36.9,16.5,30.13,West,270,3.0,9.0,43,-99.99,,,0.62,meteohub,2013-01-21 15:52:00,
2013-01-21 10:57:00,36.9,16.0,30.13,WNW,292,7.0,9.0,42,-99.99,,,0.62,meteohub,2013-01-21 15:57:00,
2013-01-21 11:02:00,37.0,16.2,30.13,WNW,292,6.0,9.0,42,-99.99,,,0.62,meteohub,2013-01-21 16:02:00,
2013-01-21 11:07:00,37.0,15.6,30.13,NW,315,6.0,9.0,41,-99.99,,,0.62,meteohub,2013-01-21 16:07:00,
2013-01-21 11:12:00,37.0,15.6,30.13,NW,315,2.0,9.0,41,-99.99,,,0.62,meteohub,2013-01-21 16:12:00,
2013-01-21 11:17:00,37.0,15.6,30.13,NW,315,4.0,9.0,41,-99.99,,,0.62,meteohub,2013-01-21 16:17:00,
2013-01-21 11:22:00,37.4,16.5,30.12,NW,315,4.0,8.0,42,-99.99,,,0.62,meteohub,2013-01-21 16:22:00,
2013-01-21 11:27:00,37.8,16.7,30.12,WNW,292,3.0,8.0,42,-99.99,,,0.62,meteohub,2013-01-21 16:27:00,
2013-01-21 11:32:00,38.1,17.1,30.12,NW,315,3.0,8.0,42,-99.99,,,0.62,meteohub,2013-01-21 16:32:00,
2013-01-21 11:37:00,38.3,16.7,30.12,North,0,2.0,10.0,41,-99.99,,,0.62,meteohub,2013-01-21 16:37:00,
2013-01-21 11:42:00,38.8,17.2,30.11,WNW,292,3.0,10.0,41,-99.99,,,0.62,meteohub,2013-01-21 16:42:00,
2013-01-21 11:47:00,39.6,17.2,30.10,SSW,202,4.0,10.0,40,-99.99,,,0.62,meteohub,2013-01-21 16:47:00,
2013-01-21 11:52:00,39.7,18.0,30.10,WNW,292,4.0,8.0,41,-99.99,,,0.62,meteohub,2013-01-21 16:52:00,
2013-01-21 11:57:00,39.7,17.4,30.07,NW,315,6.0,9.0,40,-99.99,,,0.62,meteohub,2013-01-21 16:57:00,
2013-01-21 12:02:00,39.9,17.6,30.07,WNW,292,4.0,9.0,40,-99.99,,,0.62,meteohub,2013-01-21 17:02:00,
2013-01-21 12:07:00,39.9,17.6,30.07,NNW,338,6.0,14.0,40,-99.99,,,0.62,meteohub,2013-01-21 17:07:00,
2013-01-21 12:12:00,39.9,17.6,30.07,SW,225,6.0,14.0,40,-99.99,,,0.62,meteohub,2013-01-21 17:12:00,
2013-01-21 12:17:00,39.6,16.7,30.07,NW,315,6.0,14.0,39,-99.99,,,0.62,meteohub,2013-01-21 17:17:00,
2013-01-21 12:22:00,39.6,17.2,30.07,NW,315,6.0,9.0,40,-99.99,,,0.62,meteohub,2013-01-21 17:22:00,
2013-01-21 12:27:00,39.4,17.1,30.07,NNE,22,4.0,9.0,40,-99.99,,,0.62,meteohub,2013-01-21 17:27:00,
2013-01-21 12:32:00,39.6,17.2,30.07,NNW,338,8.0,9.0,40,-99.99,,,0.62,meteohub,2013-01-21 17:32:00,
2013-01-21 12:37:00,39.4,17.1,30.07,NW,315,3.0,11.0,40,-99.99,,,0.62,meteohub,2013-01-21 17:37:00,
2013-01-21 12:42:00,39.4,17.1,30.04,WNW,292,6.0,11.0,40,-99.99,,,0.62,meteohub,2013-01-21 17:42:00,
2013-01-21 12:47:00,39.6,17.2,30.04,WNW,292,6.0,11.0,40,-99.99,,,0.62,meteohub,2013-01-21 17:47:00,
2013-01-21 12:52:00,39.7,18.0,30.04,WNW,292,6.0,11.0,41,-99.99,,,0.62,meteohub,2013-01-21 17:52:00,
2013-01-21 12:57:00,39.7,17.4,30.04,WNW,292,6.0,11.0,40,-99.99,,,0.62,meteohub,2013-01-21 17:57:00,
2013-01-21 13:02:00,39.7,18.0,30.04,NNE,22,3.0,11.0,41,-99.99,,,0.62,meteohub,2013-01-21 18:02:00,
2013-01-21 13:07:00,39.7,17.4,30.04,WNW,292,5.0,11.0,40,-99.99,,,0.62,meteohub,2013-01-21 18:07:00,
2013-01-21 13:12:00,39.9,17.6,30.03,WNW,292,5.0,11.0,40,-99.99,,,0.62,meteohub,2013-01-21 18:12:00,
2013-01-21 13:17:00,39.9,17.6,30.03,WNW,292,6.0,11.0,40,-99.99,,,0.62,meteohub,2013-01-21 18:17:00,
2013-01-21 13:22:00,39.7,17.4,30.04,NW,315,4.0,10.0,40,-99.99,,,0.62,meteohub,2013-01-21 18:22:00,
2013-01-21 13:27:00,39.7,17.4,30.00,WNW,292,8.0,11.0,40,-99.99,,,0.62,meteohub,2013-01-21 18:27:00,
2013-01-21 13:32:00,39.4,17.1,30.00,NNW,338,6.0,13.0,40,-99.99,,,0.62,meteohub,2013-01-21 18:32:00,
2013-01-21 13:37:00,39.6,17.2,30.00,West,270,3.0,13.0,40,-99.99,,,0.62,meteohub,2013-01-21 18:37:00,
2013-01-21 13:42:00,39.7,17.4,30.00,WNW,292,4.0,13.0,40,-99.99,,,0.62,meteohub,2013-01-21 18:42:00,
2013-01-21 13:47:00,39.7,17.4,30.00,WNW,292,6.0,13.0,40,-99.99,,,0.62,meteohub,2013-01-21 18:47:00,
2013-01-21 13:52:00,39.9,17.6,30.00,NNW,338,6.0,11.0,40,-99.99,,,0.62,meteohub,2013-01-21 18:52:00,
2013-01-21 13:57:00,39.7,17.4,30.00,NW,315,6.0,11.0,40,-99.99,,,0.62,meteohub,2013-01-21 18:57:00,
2013-01-21 14:02:00,39.7,17.4,30.00,WNW,292,5.0,11.0,40,-99.99,,,0.62,meteohub,2013-01-21 19:02:00,
2013-01-21 14:07:00,39.6,17.2,30.00,NW,315,8.0,11.0,40,-99.99,,,0.62,meteohub,2013-01-21 19:07:00,
2013-01-21 14:12:00,39.4,17.1,30.00,NW,315,3.0,11.0,40,-99.99,,,0.62,meteohub,2013-01-21 19:12:00,
2013-01-21 14:17:00,39.2,16.9,30.01,NNW,338,11.0,11.0,40,-99.99,,,0.62,meteohub,2013-01-21 19:17:00,
2013-01-21 14:22:00,38.8,16.7,30.01,NW,315,9.0,16.0,40,-99.99,,,0.62,meteohub,2013-01-21 19:22:00,
2013-01-21 14:27:00,38.8,16.7,30.01,NW,315,8.0,16.0,40,-99.99,,,0.62,meteohub,2013-01-21 19:27:00,
2013-01-21 14:32:00,38.5,16.9,30.01,NW,315,7.0,11.0,41,-99.99,,,0.62,meteohub,2013-01-21 19:32:00,
2013-01-21 14:37:00,38.3,16.7,30.01,NW,315,7.0,13.0,41,-99.99,,,0.62,meteohub,2013-01-21 19:37:00,
2013-01-21 14:42:00,37.8,16.2,30.02,NW,315,6.0,13.0,41,-99.99,,,0.62,meteohub,2013-01-21 19:42:00,
2013-01-21 14:47:00,37.8,16.2,30.02,NE,45,4.0,13.0,41,-99.99,,,0.62,meteohub,2013-01-21 19:47:00,
2013-01-21 14:52:00,37.9,16.3,30.01,SSW,202,11.0,13.0,41,-99.99,,,0.62,meteohub,2013-01-21 19:52:00,
2013-01-21 14:57:00,37.8,15.6,30.02,WNW,292,6.0,13.0,40,-99.99,,,0.62,meteohub,2013-01-21 19:57:00,
2013-01-21 15:02:00,37.8,15.6,30.02,WNW,292,7.0,13.0,40,-99.99,,,0.62,meteohub,2013-01-21 20:02:00,
2013-01-21 15:07:00,38.3,16.2,30.01,WNW,292,10.0,12.0,40,-99.99,,,0.62,meteohub,2013-01-21 20:07:00,
2013-01-21 15:12:00,38.8,16.7,30.01,North,0,3.0,12.0,40,-99.99,,,0.62,meteohub,2013-01-21 20:12:00,
2013-01-21 15:17:00,38.7,16.0,30.01,NNW,338,3.0,11.0,39,-99.99,,,0.62,meteohub,2013-01-21 20:17:00,
2013-01-21 15:22:00,38.8,16.0,30.01,NW,315,7.0,11.0,39,-99.99,,,0.62,meteohub,2013-01-21 20:22:00,
2013-01-21 15:27:00,38.5,15.8,30.01,NNW,338,7.0,14.0,39,-99.99,,,0.62,meteohub,2013-01-21 20:27:00,
2013-01-21 15:32:00,38.5,15.8,30.01,West,270,5.0,14.0,39,-99.99,,,0.62,meteohub,2013-01-21 20:32:00,
2013-01-21 15:37:00,38.1,15.4,30.01,NW,315,6.0,14.0,39,-99.99,,,0.62,meteohub,2013-01-21 20:37:00,
2013-01-21 15:42:00,37.9,15.3,29.98,WNW,292,5.0,11.0,39,-99.99,,,0.62,meteohub,2013-01-21 20:42:00,
2013-01-21 15:47:00,37.6,14.9,29.99,NNW,338,10.0,10.0,39,-99.99,,,0.62,meteohub,2013-01-21 20:47:00,
2013-01-21 15:52:00,36.7,14.7,29.99,NNW,338,9.0,10.0,40,-99.99,,,0.62,meteohub,2013-01-21 20:52:00,
2013-01-21 15:57:00,36.3,13.8,30.03,WNW,292,8.0,10.0,39,-99.99,,,0.62,meteohub,2013-01-21 20:57:00,
2013-01-21 16:02:00,35.8,13.3,30.04,West,270,8.0,13.0,39,-99.99,,,0.62,meteohub,2013-01-21 21:02:00,
2013-01-21 16:07:00,35.6,13.1,30.04,WNW,292,11.0,15.0,39,-99.99,,,0.62,meteohub,2013-01-21 21:07:00,
2013-01-21 16:12:00,35.1,13.3,30.01,NNW,338,10.0,15.0,40,-99.99,,,0.62,meteohub,2013-01-21 21:12:00,
2013-01-21 16:17:00,34.9,12.6,30.01,NW,315,8.0,14.0,39,-99.99,,,0.62,meteohub,2013-01-21 21:17:00,
2013-01-21 16:22:00,34.3,12.6,30.01,NW,315,9.0,15.0,40,-99.99,,,0.62,meteohub,2013-01-21 21:22:00,
2013-01-21 16:27:00,34.0,12.2,30.05,WNW,292,6.0,15.0,40,-99.99,,,0.62,meteohub,2013-01-21 21:27:00,
2013-01-21 16:32:00,33.6,12.0,30.05,NW,315,7.0,13.0,40,-99.99,,,0.62,meteohub,2013-01-21 21:32:00,
2013-01-21 16:37:00,33.3,11.7,30.06,NE,45,11.0,11.0,40,-99.99,,,0.62,meteohub,2013-01-21 21:37:00,
2013-01-21 16:42:00,33.1,11.5,30.02,NNW,338,10.0,11.0,40,-99.99,,,0.62,meteohub,2013-01-21 21:42:00,
2013-01-21 16:47:00,32.7,11.1,30.03,WNW,292,12.0,16.0,40,-99.99,,,0.62,meteohub,2013-01-21 21:47:00,
2013-01-21 16:52:00,32.5,10.9,30.03,NW,315,6.0,16.0,40,-99.99,,,0.62,meteohub,2013-01-21 21:52:00,
2013-01-21 16:57:00,32.4,9.7,30.03,NW,315,11.0,18.0,38,-99.99,,,0.62,meteohub,2013-01-21 21:57:00,
2013-01-21 17:02:00,32.2,9.5,30.03,WNW,292,14.0,20.0,38,-99.99,,,0.62,meteohub,2013-01-21 22:02:00,
2013-01-21 17:07:00,31.8,9.1,30.04,WNW,292,8.0,20.0,38,-99.99,,,0.62,meteohub,2013-01-21 22:07:00,
2013-01-21 17:12:00,31.5,9.3,30.04,WNW,292,6.0,20.0,39,-99.99,,,0.62,meteohub,2013-01-21 22:12:00,
2013-01-21 17:17:00,31.3,9.1,30.04,WNW,292,6.0,16.0,39,-99.99,,,0.62,meteohub,2013-01-21 22:17:00,
2013-01-21 17:22:00,31.1,9.1,30.04,NW,315,9.0,13.0,39,-99.99,,,0.62,meteohub,2013-01-21 22:22:00,
2013-01-21 17:27:00,30.9,9.0,30.04,NW,315,10.0,13.0,39,-99.99,,,0.62,meteohub,2013-01-21 22:27:00,
2013-01-21 17:32:00,30.6,9.1,30.04,NW,315,7.0,17.0,40,-99.99,,,0.62,meteohub,2013-01-21 22:32:00,
2013-01-21 17:37:00,30.6,9.1,30.04,NW,315,13.0,17.0,40,-99.99,,,0.62,meteohub,2013-01-21 22:37:00,
2013-01-21 17:42:00,30.2,8.8,30.05,WNW,292,10.0,15.0,40,-99.99,,,0.62,meteohub,2013-01-21 22:42:00,
2013-01-21 17:47:00,30.2,8.8,30.05,WNW,292,9.0,15.0,40,-99.99,,,0.62,meteohub,2013-01-21 22:47:00,
2013-01-21 17:52:00,30.2,8.8,30.05,West,270,7.0,14.0,40,-99.99,,,0.62,meteohub,2013-01-21 22:52:00,
2013-01-21 17:57:00,30.0,8.6,30.05,NW,315,8.0,14.0,40,-99.99,,,0.62,meteohub,2013-01-21 22:57:00,
2013-01-21 18:02:00,29.8,9.0,30.05,WNW,292,9.0,14.0,41,-99.99,,,0.62,meteohub,2013-01-21 23:02:00,
2013-01-21 18:07:00,29.8,9.0,30.05,NNW,338,6.0,14.0,41,-99.99,,,0.62,meteohub,2013-01-21 23:07:00,
2013-01-21 18:12:00,29.7,9.0,30.05,WNW,292,11.0,14.0,41,-99.99,,,0.62,meteohub,2013-01-21 23:12:00,
2013-01-21 18:17:00,29.5,8.8,30.05,NW,315,12.0,15.0,41,-99.99,,,0.62,meteohub,2013-01-21 23:17:00,
2013-01-21 18:22:00,29.5,8.8,30.05,WNW,292,8.0,15.0,41,-99.99,,,0.62,meteohub,2013-01-21 23:22:00,
2013-01-21 18:27:00,29.5,8.8,30.05,NW,315,9.0,15.0,41,-99.99,,,0.62,meteohub,2013-01-21 23:27:00,
2013-01-21 18:32:00,29.3,8.6,30.06,WNW,292,6.0,15.0,41,-99.99,,,0.62,meteohub,2013-01-21 23:32:00,
2013-01-21 18:37:00,29.3,8.6,30.06,WNW,292,5.0,15.0,41,-99.99,,,0.62,meteohub,2013-01-21 23:37:00,
2013-01-21 18:42:00,29.1,8.4,30.06,NW,315,6.0,18.0,41,-99.99,,,0.62,meteohub,2013-01-21 23:42:00,
2013-01-21 18:47:00,29.1,8.4,30.06,WNW,292,6.0,18.0,41,-99.99,,,0.62,meteohub,2013-01-21 23:47:00,
2013-01-21 18:53:00,28.9,8.2,30.06,WNW,292,5.0,18.0,41,-99.99,,,0.62,meteohub,2013-01-21 23:53:00,
2013-01-21 18:58:00,28.8,8.1,30.06,WNW,292,6.0,13.0,41,-99.99,,,0.62,meteohub,2013-01-21 23:58:00,
2013-01-21 19:03:00,28.8,8.6,30.06,NW,315,9.0,13.0,42,-99.99,,,0.62,meteohub,2013-01-22 00:03:00,
2013-01-21 19:08:00,28.6,8.4,30.06,ENE,68,12.0,13.0,42,-99.99,,,0.62,meteohub,2013-01-22 00:08:00,
2013-01-21 19:13:00,28.6,8.4,30.06,WNW,292,11.0,13.0,42,-99.99,,,0.62,meteohub,2013-01-22 00:13:00,
2013-01-21 19:18:00,28.6,7.9,30.06,NW,315,9.0,13.0,41,-99.99,,,0.62,meteohub,2013-01-22 00:18:00,
2013-01-21 19:23:00,28.4,8.2,30.06,NNW,338,13.0,14.0,42,-99.99,,,0.62,meteohub,2013-01-22 00:23:00,
2013-01-21 19:28:00,28.4,8.2,30.03,WNW,292,6.0,15.0,42,-99.99,,,0.62,meteohub,2013-01-22 00:28:00,
2013-01-21 19:33:00,28.4,8.2,30.03,NE,45,11.0,15.0,42,-99.99,,,0.62,meteohub,2013-01-22 00:33:00,
2013-01-21 19:38:00,28.0,8.4,30.03,WNW,292,6.0,15.0,43,-99.99,,,0.62,meteohub,2013-01-22 00:38:00,
2013-01-21 19:43:00,28.0,7.9,30.03,WNW,292,9.0,15.0,42,-99.99,,,0.62,meteohub,2013-01-22 00:43:00,
2013-01-21 19:48:00,27.9,7.7,30.04,ESE,112,7.0,13.0,42,-99.99,,,0.62,meteohub,2013-01-22 00:48:00,
2013-01-21 19:53:00,27.9,7.7,30.04,West,270,9.0,13.0,42,-99.99,,,0.62,meteohub,2013-01-22 00:53:00,
2013-01-21 19:58:00,27.9,7.7,30.04,WNW,292,12.0,22.0,42,-99.99,,,0.62,meteohub,2013-01-22 00:58:00,
2013-01-21 20:03:00,27.7,7.7,30.04,WNW,292,6.0,22.0,42,-99.99,,,0.62,meteohub,2013-01-22 01:03:00,
2013-01-21 20:08:00,27.5,7.5,30.04,WNW,292,11.0,15.0,42,-99.99,,,0.62,meteohub,2013-01-22 01:08:00,
2013-01-21 20:13:00,27.5,7.9,30.04,NW,315,3.0,15.0,43,-99.99,,,0.62,meteohub,2013-01-22 01:13:00,
2013-01-21 20:18:00,27.3,7.3,30.04,NNW,338,4.0,13.0,42,-99.99,,,0.62,meteohub,2013-01-22 01:18:00,
2013-01-21 20:23:00,27.1,7.7,30.04,NW,315,8.0,13.0,43,-99.99,,,0.62,meteohub,2013-01-22 01:23:00,
2013-01-21 20:28:00,27.0,7.5,30.04,WNW,292,13.0,13.0,43,-99.99,,,0.62,meteohub,2013-01-22 01:28:00,
2013-01-21 20:33:00,27.0,7.5,30.04,NW,315,6.0,13.0,43,-99.99,,,0.62,meteohub,2013-01-22 01:33:00,
2013-01-21 20:38:00,26.8,7.3,30.04,NW,315,9.0,13.0,43,-99.99,,,0.62,meteohub,2013-01-22 01:38:00,
2013-01-21 20:43:00,26.6,6.6,30.04,NW,315,10.0,13.0,42,-99.99,,,0.62,meteohub,2013-01-22 01:43:00,
2013-01-21 20:48:00,26.6,6.6,30.04,NNW,338,9.0,16.0,42,-99.99,,,0.62,meteohub,2013-01-22 01:48:00,
2013-01-21 20:53:00,26.4,6.4,30.05,NW,315,6.0,16.0,42,-99.99,,,0.62,meteohub,2013-01-22 01:53:00,
2013-01-21 20:58:00,26.2,6.3,30.01,WNW,292,5.0,16.0,42,-99.99,,,0.62,meteohub,2013-01-22 01:58:00,
2013-01-21 21:03:00,26.1,6.1,30.02,West,270,6.0,13.0,42,-99.99,,,0.62,meteohub,2013-01-22 02:03:00,
2013-01-21 21:08:00,26.1,5.5,30.02,NW,315,13.0,13.0,41,-99.99,,,0.62,meteohub,2013-01-22 02:08:00,
2013-01-21 21:13:00,26.1,5.0,30.05,NW,315,15.0,15.0,40,-99.99,,,0.62,meteohub,2013-01-22 02:13:00,
2013-01-21 21:18:00,25.9,4.3,30.05,NNW,338,9.0,15.0,39,-99.99,,,0.62,meteohub,2013-01-22 02:18:00,
2013-01-21 21:23:00,25.7,3.6,30.05,WNW,292,11.0,15.0,38,-99.99,,,0.62,meteohub,2013-01-22 02:23:00,
2013-01-21 21:28:00,25.5,2.8,30.02,West,270,8.0,15.0,37,-99.99,,,0.62,meteohub,2013-01-22 02:28:00,
2013-01-21 21:33:00,25.3,2.1,30.02,WNW,292,17.0,17.0,36,-99.99,,,0.62,meteohub,2013-01-22 02:33:00,
2013-01-21 21:38:00,25.3,2.1,30.02,WNW,292,7.0,15.0,36,-99.99,,,0.62,meteohub,2013-01-22 02:38:00,
2013-01-21 21:43:00,25.0,1.8,30.03,WSW,248,6.0,17.0,36,-99.99,,,0.62,meteohub,2013-01-22 02:43:00,
2013-01-21 21:48:00,25.0,1.8,30.03,NW,315,9.0,17.0,36,-99.99,,,0.62,meteohub,2013-01-22 02:48:00,
2013-01-21 21:53:00,24.8,1.6,30.03,North,0,12.0,15.0,36,-99.99,,,0.62,meteohub,2013-01-22 02:53:00,
2013-01-21 21:58:00,24.6,1.6,30.03,WNW,292,6.0,18.0,36,-99.99,,,0.62,meteohub,2013-01-22 02:58:00,
2013-01-21 22:03:00,24.4,1.4,30.03,WNW,292,9.0,18.0,36,-99.99,,,0.62,meteohub,2013-01-22 03:03:00,
2013-01-21 22:08:00,24.3,0.5,30.03,NW,315,10.0,13.0,35,-99.99,,,0.62,meteohub,2013-01-22 03:08:00,
2013-01-21 22:13:00,24.1,0.5,30.07,WNW,292,13.0,15.0,35,-99.99,,,0.62,meteohub,2013-01-22 03:13:00,
2013-01-21 22:18:00,24.1,-0.2,30.07,NW,315,12.0,22.0,34,-99.99,,,0.62,meteohub,2013-01-22 03:18:00,
2013-01-21 22:23:00,23.9,-0.4,30.07,WNW,292,6.0,22.0,34,-99.99,,,0.62,meteohub,2013-01-22 03:23:00,
2013-01-21 22:28:00,23.7,-0.6,30.07,West,270,9.0,22.0,34,-99.99,,,0.62,meteohub,2013-01-22 03:28:00,
2013-01-21 22:33:00,23.7,-0.6,30.07,WNW,292,7.0,17.0,34,-99.99,,,0.62,meteohub,2013-01-22 03:33:00,
2013-01-21 22:38:00,23.5,-0.8,30.07,NW,315,9.0,17.0,34,-99.99,,,0.62,meteohub,2013-01-22 03:38:00,
2013-01-21 22:43:00,23.4,-0.2,30.07,WNW,292,5.0,15.0,35,-99.99,,,0.62,meteohub,2013-01-22 03:43:00,
2013-01-21 22:48:00,23.2,-0.4,30.08,WNW,292,10.0,15.0,35,-99.99,,,0.62,meteohub,2013-01-22 03:48:00,
2013-01-21 22:53:00,23.0,0.7,30.08,West,270,5.0,17.0,37,-99.99,,,0.62,meteohub,2013-01-22 03:53:00,
2013-01-21 22:58:00,22.8,1.0,30.08,NW,315,10.0,17.0,38,-99.99,,,0.62,meteohub,2013-01-22 03:58:00,
2013-01-21 23:03:00,22.6,0.9,30.08,WNW,292,10.0,17.0,38,-99.99,,,0.62,meteohub,2013-01-22 04:03:00,
2013-01-21 23:08:00,22.6,0.9,30.08,NW,315,7.0,17.0,38,-99.99,,,0.62,meteohub,2013-01-22 04:08:00,
2013-01-21 23:13:00,22.5,0.7,30.05,WNW,292,12.0,23.0,38,-99.99,,,0.62,meteohub,2013-01-22 04:13:00,
2013-01-21 23:18:00,22.1,1.0,30.05,NW,315,11.0,23.0,39,-99.99,,,0.62,meteohub,2013-01-22 04:18:00,
2013-01-21 23:23:00,22.1,1.0,30.05,NW,315,7.0,23.0,39,-99.99,,,0.62,meteohub,2013-01-22 04:23:00,
2013-01-21 23:28:00,21.9,0.9,30.05,North,0,8.0,17.0,39,-99.99,,,0.62,meteohub,2013-01-22 04:28:00,
2013-01-21 23:33:00,21.7,1.2,30.06,NW,315,10.0,17.0,40,-99.99,,,0.62,meteohub,2013-01-22 04:33:00,
2013-01-21 23:38:00,21.6,1.6,30.06,NW,315,6.0,17.0,41,-99.99,,,0.62,meteohub,2013-01-22 04:38:00,
2013-01-21 23:43:00,21.2,1.8,30.06,WNW,292,11.0,17.0,42,-99.99,,,0.62,meteohub,2013-01-22 04:43:00,
2013-01-21 23:48:00,21.2,1.2,30.06,NW,315,10.0,19.0,41,-99.99,,,0.62,meteohub,2013-01-22 04:48:00,
2013-01-21 23:53:00,21.0,1.0,30.06,WNW,292,13.0,19.0,41,-99.99,,,0.62,meteohub,2013-01-22 04:53:00,
2013-01-21 23:58:00,20.8,0.9,30.06,WNW,292,8.0,19.0,41,-99.99,,,0.62,meteohub,2013-01-22 04:58:00,